DW2373 Thessaloniki GR current weather conditions

sailwx.info

Wind from 090 at 1 knots gusting 1

Air temperature 20.6° C
Dewpoint 12.8° C

Last reported at 2016-Sep-24 21:08 UTC.
Time now 2016-Sep-25 03:48 UTC

Location: N 40°31' E 022°58'.
View on Google Maps.

See reports from other nearby stations

  
Tides and Currents Weather Stations Pressure Air Temp Water Temp Dewpoint Dewpoint Depression Visibility Wind Speed Wind Dir Waves Ship Positions
date/time (UTC)wind fromknots sea level pressurealtimeterstation pressurevisibilityair tempwater tempwave heightnotes
2016-Sep-24 21:08 090 1 gusting 1 20.6
2016-Sep-24 21:03 090 1 gusting 1 20.6
2016-Sep-24 20:08 090 1 gusting 1 20.6
2016-Sep-24 20:03 090 1 gusting 1 20.6
2016-Sep-24 19:08 090 1 gusting 1 21.1
2016-Sep-24 19:03 090 1 gusting 4 21.1
2016-Sep-24 18:08 090 4 gusting 2 21.7
2016-Sep-24 18:03 090 4 gusting 2 21.7
2016-Sep-24 17:08 090 4 gusting 2 21.7
2016-Sep-24 17:03 090 4 gusting 2 21.7
2016-Sep-24 16:08 21.7
2016-Sep-24 16:03 21.7
2016-Sep-24 15:08 22.2
2016-Sep-24 15:03 22.2
2016-Sep-24 14:08 135 1 gusting 2 22.8
2016-Sep-24 14:03 154 2 gusting 6 23.3
2016-Sep-24 13:08 305 1 gusting 1 22.8
2016-Sep-24 13:03 315 2 gusting 5 22.8
2016-Sep-24 12:08 315 22.8
2016-Sep-24 12:03 315 1 gusting 6 22.2
2016-Sep-24 11:08 270 21.7
2016-Sep-24 11:03 318 0 gusting 5 21.7
2016-Sep-24 10:08 338 2 gusting 2 21.7
2016-Sep-24 10:03 280 2 gusting 5 21.7
2016-Sep-24 09:08 315 1 gusting 2 21.1
2016-Sep-24 09:03 270 1 gusting 4 21.1
2016-Sep-24 08:08 248 0 gusting 0 21.7
2016-Sep-24 08:03 326 0 gusting 1 21.1
2016-Sep-23 21:08 225 1 gusting 0 20.0
2016-Sep-23 21:03 225 1 gusting 0 20.0
2016-Sep-23 20:08 225 1 gusting 0 20.6
2016-Sep-23 20:03 225 1 gusting 0 20.6
2016-Sep-23 19:08 225 1 gusting 0 20.6
2016-Sep-23 19:03 225 1 gusting 0 20.6
2016-Sep-23 18:08 225 1 gusting 0 21.1
2016-Sep-23 18:03 225 1 gusting 0 21.1
2016-Sep-23 17:08 225 1 gusting 0 21.7
2016-Sep-23 17:03 225 1 gusting 0 21.7
2016-Sep-23 16:08 225 1 gusting 0 21.7
2016-Sep-23 16:03 225 1 gusting 0 22.2
2016-Sep-23 15:08 225 1 gusting 0 22.2
2016-Sep-23 15:03 225 1 gusting 4 22.2
2016-Sep-23 14:08 202 2 23.3
2016-Sep-23 14:03 202 2 gusting 6 23.9
2016-Sep-23 13:08 045 1 gusting 5 23.3
2016-Sep-23 13:03 282 2 gusting 6 23.3
2016-Sep-23 12:08 338 5 gusting 6 22.8
2016-Sep-23 12:03 302 3 gusting 5 22.8
2016-Sep-23 11:08 292 4 gusting 7 21.7
2016-Sep-23 11:03 315 6 gusting 7 21.7